Tracking 29892 objects as of 21-Nov-2024
HD Live streaming from Space Station
objects crossing your sky now

DELTA 1 R/B

Track DELTA 1 R/B now!
10-day predictions


NORAD ID: 14096
Int'l Code: 1983-051B
Perigee: 766.5 km
Apogee: 2,521.6 km
Inclination: 72.3 °
Period: 119.0 minutes
Semi major axis: 8015 km
RCS: 9.2825 m2 (large)
Launch date: May 26, 1983
Source: United States (US)
Launch site: AIR FORCE WESTERN TEST RANGE (AFWTR)

Note: This is a ROCKET BODY
Your satellite tracking list
Your tracking list is empty




NASA's NSSDC Master Catalog

Two Line Element Set (TLE):
1 14096U 83051B   24325.46447486  .00000627  00000-0  10805-2 0  9997
2 14096  72.2979 323.6386 1094928 345.4790  11.6953 12.09885479831813
Source of the keplerian elements: AFSPC